Time,TemperatureF,DewpointF,PressureIn,WindDirection,WindDirectionDegrees,WindSpeedMPH,WindSpeedGustMPH,Humidity,HourlyPrecipIn,Conditions,Clouds,dailyrainin,SoftwareType,DateUTC
2013-04-29 00:03:00,54.0,54.0,30.17,ENE,69,0.0,1.0,99,0.00,,,2.83,,2013-04-29 04:03:00,
2013-04-29 00:13:00,54.0,54.0,30.17,ENE,69,0.0,1.0,99,0.00,,,2.83,,2013-04-29 04:13:00,
2013-04-29 00:23:00,54.0,54.0,30.17,ENE,69,0.0,1.0,99,0.00,,,2.80,,2013-04-29 04:23:00,
2013-04-29 00:33:00,54.0,54.0,30.17,ENE,69,0.0,1.0,99,0.00,,,2.80,,2013-04-29 04:33:00,
2013-04-29 00:43:00,54.0,54.0,30.17,ENE,69,0.0,1.0,99,0.00,,,2.80,,2013-04-29 04:43:00,
2013-04-29 00:52:00,54.0,54.0,30.16,ENE,57,0.0,1.0,99,0.00,,,2.73,,2013-04-29 04:52:00,
2013-04-29 01:02:00,54.0,54.0,30.17,ESE,102,0.0,1.0,99,0.00,,,2.71,,2013-04-29 05:02:00,
2013-04-29 01:12:00,54.0,54.0,30.17,ESE,102,0.0,1.0,99,0.00,,,2.71,,2013-04-29 05:12:00,
2013-04-29 01:22:00,54.0,54.0,30.17,ESE,102,0.0,0.0,99,0.00,,,2.58,,2013-04-29 05:22:00,
2013-04-29 01:32:00,54.0,54.0,30.18,ESE,102,0.0,0.0,99,0.00,,,2.52,,2013-04-29 05:32:00,
2013-04-29 01:42:00,54.0,54.0,30.18,ESE,102,0.0,0.0,99,0.00,,,2.52,,2013-04-29 05:42:00,
2013-04-29 01:52:00,54.0,54.0,30.18,East,79,0.0,1.0,99,0.00,,,2.32,,2013-04-29 05:52:00,
2013-04-29 02:02:00,54.0,54.0,30.17,East,79,0.0,1.0,99,0.00,,,2.28,,2013-04-29 06:02:00,
2013-04-29 02:11:00,54.0,54.0,30.17,East,79,0.0,1.0,99,0.00,,,2.28,,2013-04-29 06:11:00,
2013-04-29 02:21:00,54.0,54.0,30.17,East,97,0.0,2.0,99,0.00,,,2.27,,2013-04-29 06:21:00,
2013-04-29 02:32:00,54.0,54.0,30.17,NE,46,0.0,2.0,99,0.00,,,2.27,,2013-04-29 06:32:00,
2013-04-29 02:42:00,54.0,54.0,30.17,NE,46,0.0,2.0,99,0.00,,,2.27,,2013-04-29 06:42:00,
2013-04-29 02:52:00,54.0,54.0,30.17,NE,46,0.0,0.0,99,0.00,,,2.26,,2013-04-29 06:52:00,
2013-04-29 03:01:00,54.0,54.0,30.16,NE,50,0.0,0.0,99,0.00,,,2.25,,2013-04-29 07:01:00,
2013-04-29 03:11:00,54.0,54.0,30.16,NE,50,0.0,0.0,99,0.00,,,2.25,,2013-04-29 07:11:00,
2013-04-29 03:21:00,53.0,53.0,30.15,ENE,74,0.0,2.0,99,0.00,,,2.23,,2013-04-29 07:21:00,
2013-04-29 03:32:00,53.0,53.0,30.15,West,279,0.0,3.0,99,0.00,,,2.23,,2013-04-29 07:32:00,
2013-04-29 03:42:00,53.0,53.0,30.15,West,279,0.0,3.0,99,0.00,,,2.23,,2013-04-29 07:42:00,
2013-04-29 03:52:00,53.0,53.0,30.16,ESE,117,0.0,2.0,99,0.00,,,2.19,,2013-04-29 07:52:00,
2013-04-29 04:03:00,53.0,53.0,30.16,ESE,117,0.0,0.0,99,0.00,,,2.19,,2013-04-29 08:03:00,
2013-04-29 04:11:00,53.0,53.0,30.16,ESE,117,0.0,0.0,99,0.00,,,2.19,,2013-04-29 08:11:00,
2013-04-29 04:21:00,53.0,53.0,30.15,ESE,115,0.0,0.0,99,0.00,,,2.19,,2013-04-29 08:21:00,
2013-04-29 04:32:00,53.0,53.0,30.15,ESE,115,0.0,0.0,99,0.00,,,2.19,,2013-04-29 08:32:00,
2013-04-29 04:42:00,53.0,53.0,30.15,ESE,115,0.0,0.0,99,0.00,,,2.19,,2013-04-29 08:42:00,
2013-04-29 04:52:00,53.0,53.0,30.15,ESE,110,0.0,0.0,99,0.00,,,2.18,,2013-04-29 08:52:00,
2013-04-29 05:01:00,53.0,53.0,30.15,ESE,109,0.0,1.0,99,0.00,,,2.18,,2013-04-29 09:01:00,
2013-04-29 05:12:00,53.0,53.0,30.15,ESE,109,0.0,1.0,99,0.00,,,2.18,,2013-04-29 09:12:00,
2013-04-29 05:21:00,53.0,53.0,30.14,ESE,109,0.0,0.0,99,0.00,,,2.16,,2013-04-29 09:21:00,
2013-04-29 05:33:00,53.0,53.0,30.14,ESE,109,0.0,0.0,99,0.00,,,2.15,,2013-04-29 09:33:00,
2013-04-29 05:42:00,53.0,53.0,30.14,ESE,109,0.0,0.0,99,0.00,,,2.15,,2013-04-29 09:42:00,
2013-04-29 05:53:00,53.0,53.0,30.14,ESE,109,0.0,0.0,99,0.00,,,2.09,,2013-04-29 09:53:00,
2013-04-29 06:02:00,53.0,53.0,30.14,ESE,109,0.0,0.0,99,0.00,,,2.05,,2013-04-29 10:02:00,
2013-04-29 06:12:00,53.0,53.0,30.14,ESE,109,0.0,0.0,99,0.00,,,2.05,,2013-04-29 10:12:00,
2013-04-29 06:23:00,53.0,53.0,30.13,ESE,109,0.0,0.0,99,0.00,,,2.00,,2013-04-29 10:23:00,
2013-04-29 06:32:00,53.0,53.0,30.13,ESE,109,0.0,0.0,99,0.00,,,2.00,,2013-04-29 10:32:00,
2013-04-29 06:42:00,53.0,53.0,30.13,ESE,109,0.0,0.0,99,0.00,,,2.00,,2013-04-29 10:42:00,
2013-04-29 06:52:00,53.0,53.0,30.13,ESE,109,0.0,0.0,99,0.00,,,2.00,,2013-04-29 10:52:00,
2013-04-29 07:03:00,53.0,53.0,30.14,ESE,109,0.0,0.0,99,0.00,,,1.99,,2013-04-29 11:03:00,
2013-04-29 07:12:00,53.0,53.0,30.14,ESE,109,0.0,0.0,99,0.00,,,1.99,,2013-04-29 11:12:00,
2013-04-29 07:21:00,53.0,53.0,30.14,ESE,109,0.0,0.0,99,0.00,,,1.99,,2013-04-29 11:21:00,
2013-04-29 07:32:00,53.0,53.0,30.14,ESE,109,0.0,0.0,99,0.00,,,1.95,,2013-04-29 11:32:00,
2013-04-29 07:42:00,53.0,53.0,30.14,ESE,109,0.0,0.0,99,0.00,,,1.95,,2013-04-29 11:42:00,
2013-04-29 07:52:00,53.0,53.0,30.15,ESE,109,0.0,0.0,99,0.00,,,1.89,,2013-04-29 11:52:00,
2013-04-29 08:01:00,53.0,53.0,30.16,ESE,109,0.0,0.0,99,0.00,,,1.89,,2013-04-29 12:01:00,
2013-04-29 08:12:00,53.0,53.0,30.16,ESE,109,0.0,0.0,99,0.00,,,1.89,,2013-04-29 12:12:00,
2013-04-29 08:22:00,54.0,54.0,30.16,ESE,109,0.0,0.0,99,0.00,,,1.88,,2013-04-29 12:22:00,
2013-04-29 08:32:00,54.0,54.0,30.16,ESE,109,0.0,0.0,99,0.00,,,1.86,,2013-04-29 12:32:00,
2013-04-29 08:42:00,54.0,54.0,30.16,ESE,109,0.0,0.0,99,0.00,,,1.86,,2013-04-29 12:42:00,
2013-04-29 08:52:00,54.0,54.0,30.17,ESE,109,0.0,0.0,100,0.00,,,1.85,,2013-04-29 12:52:00,
2013-04-29 09:01:00,54.0,54.0,30.17,ESE,109,0.0,0.0,99,0.00,,,1.73,,2013-04-29 13:01:00,
2013-04-29 09:11:00,54.0,54.0,30.17,ESE,109,0.0,0.0,99,0.00,,,1.73,,2013-04-29 13:11:00,
2013-04-29 09:21:00,55.0,55.0,30.17,ESE,109,0.0,0.0,100,0.00,,,1.67,,2013-04-29 13:21:00,
2013-04-29 09:32:00,55.0,55.0,30.17,ESE,109,0.0,0.0,100,0.00,,,1.60,,2013-04-29 13:32:00,
2013-04-29 09:42:00,55.0,55.0,30.17,ESE,109,0.0,0.0,100,0.00,,,1.60,,2013-04-29 13:42:00,
2013-04-29 09:52:00,56.0,56.0,30.17,ESE,109,0.0,0.0,100,0.00,,,1.50,,2013-04-29 13:52:00,
2013-04-29 10:02:00,55.0,55.0,30.17,ESE,109,0.0,0.0,100,0.00,,,1.39,,2013-04-29 14:02:00,
2013-04-29 10:11:00,55.0,55.0,30.17,ESE,109,0.0,0.0,100,0.00,,,1.39,,2013-04-29 14:11:00,
2013-04-29 10:21:00,56.0,56.0,30.17,ESE,109,0.0,0.0,100,0.00,,,1.33,,2013-04-29 14:21:00,
2013-04-29 10:32:00,56.0,56.0,30.16,ESE,109,0.0,0.0,100,0.00,,,1.31,,2013-04-29 14:32:00,
2013-04-29 10:42:00,56.0,56.0,30.16,ESE,109,0.0,0.0,100,0.00,,,1.31,,2013-04-29 14:42:00,
2013-04-29 10:52:00,57.0,57.0,30.16,ESE,111,0.0,1.0,100,0.00,,,1.24,,2013-04-29 14:52:00,
2013-04-29 11:01:00,58.0,58.0,30.16,ESE,111,0.0,1.0,100,0.00,,,1.15,,2013-04-29 15:01:00,
2013-04-29 11:12:00,58.0,58.0,30.16,ESE,111,0.0,1.0,100,0.00,,,1.15,,2013-04-29 15:12:00,
2013-04-29 11:21:00,58.0,58.0,30.16,ESE,111,0.0,2.0,100,0.00,,,0.96,,2013-04-29 15:21:00,
2013-04-29 11:33:00,58.0,58.0,30.16,SE,144,0.0,3.0,100,0.00,,,0.91,,2013-04-29 15:33:00,
2013-04-29 11:42:00,58.0,58.0,30.16,SE,144,0.0,3.0,100,0.00,,,0.91,,2013-04-29 15:42:00,
2013-04-29 11:53:00,59.0,59.0,30.16,SSE,149,0.0,1.0,99,0.00,,,0.84,,2013-04-29 15:53:00,
2013-04-29 12:03:00,59.0,58.0,30.16,SSE,149,0.0,0.0,98,0.00,,,0.84,,2013-04-29 16:03:00,
2013-04-29 12:12:00,59.0,58.0,30.16,SSE,149,0.0,0.0,98,0.00,,,0.84,,2013-04-29 16:12:00,
2013-04-29 12:23:00,60.0,59.0,30.16,South,178,0.0,2.0,97,0.00,,,0.78,,2013-04-29 16:23:00,
2013-04-29 12:33:00,60.0,59.0,30.16,SSE,161,0.0,2.0,97,0.00,,,0.76,,2013-04-29 16:33:00,
2013-04-29 12:42:00,60.0,59.0,30.16,SSE,161,0.0,2.0,97,0.00,,,0.76,,2013-04-29 16:42:00,
2013-04-29 12:52:00,62.0,60.0,30.16,South,175,0.0,2.0,92,0.00,,,0.76,,2013-04-29 16:52:00,
2013-04-29 13:02:00,64.0,59.0,30.15,ESE,105,1.0,5.0,85,0.00,,,0.76,,2013-04-29 17:02:00,
2013-04-29 13:12:00,64.0,59.0,30.15,ESE,105,1.0,5.0,85,0.00,,,0.76,,2013-04-29 17:12:00,
2013-04-29 13:22:00,65.0,60.0,30.14,WSW,238,1.0,3.0,84,0.00,,,0.76,,2013-04-29 17:22:00,
2013-04-29 13:32:00,67.0,58.0,30.14,South,186,1.0,5.0,74,0.00,,,0.76,,2013-04-29 17:32:00,
2013-04-29 13:42:00,67.0,58.0,30.14,South,186,1.0,5.0,74,0.00,,,0.76,,2013-04-29 17:42:00,
2013-04-29 13:52:00,70.0,57.0,30.12,WSW,241,1.0,6.0,63,0.00,,,0.76,,2013-04-29 17:52:00,
2013-04-29 14:01:00,69.0,55.0,30.12,WSW,258,1.0,3.0,62,0.00,,,0.76,,2013-04-29 18:01:00,
2013-04-29 14:13:00,69.0,55.0,30.12,WSW,258,1.0,3.0,62,0.00,,,0.76,,2013-04-29 18:13:00,
2013-04-29 14:22:00,69.0,57.0,30.12,SE,137,0.0,3.0,65,0.00,,,0.76,,2013-04-29 18:22:00,
2013-04-29 14:32:00,70.0,57.0,30.11,SSE,148,0.0,6.0,64,0.00,,,0.76,,2013-04-29 18:32:00,
2013-04-29 14:42:00,70.0,57.0,30.11,SSE,148,0.0,6.0,64,0.00,,,0.76,,2013-04-29 18:42:00,
2013-04-29 14:52:00,70.0,58.0,30.11,SSE,148,0.0,3.0,65,0.00,,,0.75,,2013-04-29 18:52:00,
2013-04-29 15:01:00,70.0,56.0,30.10,ESE,108,1.0,3.0,61,0.00,,,0.74,,2013-04-29 19:01:00,
2013-04-29 15:11:00,70.0,56.0,30.10,ESE,108,1.0,3.0,61,0.00,,,0.74,,2013-04-29 19:11:00,
2013-04-29 15:21:00,70.0,57.0,30.10,SSE,151,0.0,3.0,64,0.00,,,0.74,,2013-04-29 19:21:00,
2013-04-29 15:32:00,70.0,56.0,30.09,South,188,0.0,2.0,62,0.00,,,0.74,,2013-04-29 19:32:00,
2013-04-29 15:41:00,70.0,56.0,30.09,South,188,0.0,2.0,62,0.00,,,0.74,,2013-04-29 19:41:00,
2013-04-29 15:52:00,71.0,56.0,30.09,South,178,1.0,3.0,59,0.00,,,0.74,,2013-04-29 19:52:00,
2013-04-29 16:02:00,70.0,55.0,30.08,SE,125,0.0,3.0,59,0.00,,,0.74,,2013-04-29 20:02:00,
2013-04-29 16:12:00,70.0,55.0,30.08,SE,125,0.0,3.0,59,0.00,,,0.74,,2013-04-29 20:12:00,
2013-04-29 16:21:00,71.0,55.0,30.07,South,180,1.0,2.0,57,0.00,,,0.74,,2013-04-29 20:21:00,
2013-04-29 16:32:00,71.0,54.0,30.06,SSW,207,0.0,3.0,56,0.00,,,0.74,,2013-04-29 20:32:00,
2013-04-29 16:42:00,71.0,54.0,30.06,SSW,207,0.0,3.0,56,0.00,,,0.74,,2013-04-29 20:42:00,
2013-04-29 16:52:00,71.0,54.0,30.06,SE,139,0.0,3.0,55,0.00,,,0.74,,2013-04-29 20:52:00,
2013-04-29 17:01:00,70.0,55.0,30.06,SSE,152,1.0,6.0,58,0.00,,,0.62,,2013-04-29 21:01:00,
2013-04-29 17:11:00,70.0,55.0,30.06,SSE,152,1.0,6.0,58,0.00,,,0.62,,2013-04-29 21:11:00,
2013-04-29 17:21:00,70.0,54.0,30.05,SSE,150,1.0,6.0,56,0.00,,,0.56,,2013-04-29 21:21:00,
2013-04-29 17:33:00,69.0,55.0,30.05,SSE,151,0.0,1.0,60,0.00,,,0.34,,2013-04-29 21:33:00,
2013-04-29 17:42:00,69.0,55.0,30.05,SSE,151,0.0,1.0,60,0.00,,,0.34,,2013-04-29 21:42:00,
2013-04-29 17:53:00,69.0,54.0,30.05,WSW,246,1.0,6.0,58,0.00,,,0.23,,2013-04-29 21:53:00,
2013-04-29 18:02:00,70.0,54.0,30.04,West,279,1.0,5.0,57,0.00,,,0.18,,2013-04-29 22:02:00,
2013-04-29 18:13:00,70.0,54.0,30.04,West,279,1.0,5.0,57,0.00,,,0.18,,2013-04-29 22:13:00,
2013-04-29 18:23:00,70.0,54.0,30.05,West,260,2.0,5.0,57,0.00,,,0.09,,2013-04-29 22:23:00,
2013-04-29 18:32:00,70.0,52.0,30.05,WSW,246,2.0,5.0,52,0.00,,,0.06,,2013-04-29 22:32:00,
2013-04-29 18:42:00,70.0,52.0,30.05,WSW,246,2.0,5.0,52,0.00,,,0.06,,2013-04-29 22:42:00,
2013-04-29 18:53:00,70.0,53.0,30.05,WSW,254,1.0,3.0,55,0.00,,,0.06,,2013-04-29 22:53:00,
2013-04-29 19:02:00,69.0,51.0,30.05,WSW,253,1.0,5.0,52,0.11,,,0.17,,2013-04-29 23:02:00,
2013-04-29 19:11:00,69.0,51.0,30.05,WSW,253,1.0,5.0,52,0.11,,,0.17,,2013-04-29 23:11:00,
2013-04-29 19:22:00,68.0,52.0,30.05,WSW,257,0.0,3.0,56,0.30,,,0.36,,2013-04-29 23:22:00,
2013-04-29 19:32:00,68.0,52.0,30.05,West,264,1.0,3.0,57,0.30,,,0.36,,2013-04-29 23:32:00,
2013-04-29 19:42:00,68.0,52.0,30.05,West,264,1.0,3.0,57,0.30,,,0.36,,2013-04-29 23:42:00,
2013-04-29 19:52:00,67.0,56.0,30.05,West,264,0.0,1.0,68,0.34,,,0.40,,2013-04-29 23:52:00,
2013-04-29 20:01:00,66.0,56.0,30.06,West,264,0.0,1.0,71,0.23,,,0.40,,2013-04-30 00:01:00,
2013-04-29 20:11:00,66.0,56.0,30.06,West,264,0.0,1.0,71,0.23,,,0.40,,2013-04-30 00:11:00,
2013-04-29 20:21:00,65.0,56.0,30.07,West,264,0.0,0.0,73,0.40,,,0.70,,2013-04-30 00:21:00,
2013-04-29 20:32:00,64.0,56.0,30.07,West,264,0.0,0.0,74,1.32,,,1.62,,2013-04-30 00:32:00,
2013-04-29 20:42:00,64.0,56.0,30.07,West,264,0.0,0.0,74,1.32,,,1.62,,2013-04-30 00:42:00,
2013-04-29 20:52:00,62.0,55.0,30.09,West,264,0.0,0.0,78,1.28,,,1.62,,2013-04-30 00:52:00,
2013-04-29 21:02:00,61.0,55.0,30.09,West,264,0.0,0.0,80,1.28,,,1.62,,2013-04-30 01:02:00,
2013-04-29 21:11:00,61.0,55.0,30.09,West,264,0.0,0.0,80,1.28,,,1.62,,2013-04-30 01:11:00,
2013-04-29 21:22:00,59.0,54.0,30.09,West,264,0.0,0.0,83,0.92,,,1.62,,2013-04-30 01:22:00,
2013-04-29 21:32:00,58.0,53.0,30.10,West,264,0.0,0.0,84,0.00,,,1.62,,2013-04-30 01:32:00,
2013-04-29 21:41:00,58.0,53.0,30.10,West,264,0.0,0.0,84,0.00,,,1.62,,2013-04-30 01:41:00,
2013-04-29 21:52:00,56.0,52.0,30.11,West,264,0.0,0.0,87,0.00,,,1.62,,2013-04-30 01:52:00,
2013-04-29 22:01:00,55.0,52.0,30.11,West,264,0.0,0.0,88,0.00,,,1.62,,2013-04-30 02:01:00,
2013-04-29 22:11:00,54.0,51.0,30.12,West,264,0.0,0.0,90,0.00,,,1.62,,2013-04-30 02:11:00,
2013-04-29 22:21:00,54.0,51.0,30.12,West,264,0.0,0.0,90,0.00,,,1.62,,2013-04-30 02:21:00,
2013-04-29 22:31:00,54.0,51.0,30.12,West,264,0.0,0.0,90,0.00,,,1.62,,2013-04-30 02:31:00,
2013-04-29 22:41:00,54.0,51.0,30.12,West,264,0.0,0.0,90,0.00,,,1.62,,2013-04-30 02:41:00,
2013-04-29 22:51:00,53.0,51.0,30.12,West,264,0.0,0.0,92,0.00,,,1.62,,2013-04-30 02:51:00,
2013-04-29 23:01:00,53.0,51.0,30.12,West,264,0.0,0.0,92,0.00,,,1.62,,2013-04-30 03:01:00,
2013-04-29 23:11:00,52.0,50.0,30.13,West,264,0.0,0.0,92,0.00,,,1.62,,2013-04-30 03:11:00,
2013-04-29 23:21:00,52.0,50.0,30.13,West,264,0.0,0.0,92,0.00,,,1.62,,2013-04-30 03:21:00,
2013-04-29 23:33:00,52.0,50.0,30.13,West,264,0.0,0.0,93,0.00,,,1.62,,2013-04-30 03:33:00,
2013-04-29 23:42:00,52.0,50.0,30.13,West,264,0.0,0.0,93,0.00,,,1.62,,2013-04-30 03:42:00,
2013-04-29 23:52:00,52.0,50.0,30.12,West,264,0.0,0.0,93,0.00,,,1.62,,2013-04-30 03:52:00,